Location: Quedlinburg
(51.7921°N, 11.1414°E)
Time: 07:19:29
(UTC+02:00)

SO-50 - Pass Details

Date: 10 March 2026
Orbit: 567 x 673 km, 64.6° (Epoch: 13 April)

Event Time Altitude Azimuth Distance (km) Brightness Sun altitude
Rises 19:29:32 0° 199° (SSW) 2,922 ? -12.9°
Reaches altitude 10° 19:31:52 10° 193° (SSW) 2,034 ? -13.2°
Maximum altitude 19:36:14 42° 123° (ESE) 931 ? -13.9°
Enters shadow 19:40:40 10° 53° (NE) 2,077 ? -14.6°
